Location: Lovettville
(53.0333°N, 116.6833°W)
Time: 18:42:41
(UTC+00:00)

Envisat - Visible Passes

Search period start: 29 May 2023 00:00
Search period end: 08 June 2023 00:00
Orbit: 763 x 765 km, 98.2° (Epoch: 29 May)

Date Brightness Start Highest point End Pass type
(mag) Time Alt. Az. Time Alt. Az. Time Alt. Az.
29 May 5.3 10:36:54 10° NE 10:40:44 21° E 10:44:32 10° SE visible
30 May 5.9 10:02:01 10° ENE 10:03:01 11° E 10:04:01 10° E visible
01 Jun 5.5 10:24:51 10° NE 10:28:08 17° E 10:31:25 10° SE visible
04 Jun 5.6 10:13:00 10° NE 10:15:32 14° E 10:18:03 10° ESE visible
07 Jun 5.9 10:01:44 10° ENE 10:02:53 11° E 10:04:03 10° E visible
